When you browse on this site, cookies collect data to enhance your experience and personalize the content and advertising you see.
Visit our Privacy Policy to learn more. By continuing to use the site, you agree to this use of cookies and data.
  • In Austria
  • List of Countries
  • For 7 days
  • Water Temperature
  • Weather Map
  • News
  • Weather Widgets
  • user-avatar
    Login

    Hourly Weather Tlanchinol

    Today, 10 December, Tuesday

    Time Temperature Precipitation Wind Pressure Humidity
    00:00 +14°C° 0 mm 1 mps 643 mmHg 69%
    01:00 +14°C° 0 mm 1 mps 643 mmHg 67%
    02:00 +14°C° 0 mm 1 mps 643 mmHg 64%
    03:00 +14°C° 0 mm 2 mps 643 mmHg 61%
    04:00 +14°C° 0 mm 2 mps 643 mmHg 58%
    05:00 +14°C° 0 mm 2 mps 643 mmHg 51%
    06:00 +16°C° 0 mm 2 mps 644 mmHg 51%
    07:00 +19°C° 0 mm 1 mps 645 mmHg 51%
    08:00 +20°C° 0 mm 1 mps 646 mmHg 51%
    09:00 +20°C° 0 mm 2 mps 646 mmHg 52%
    10:00 +21°C° 0 mm 2 mps 646 mmHg 53%
    11:00 +23°C° 0 mm 2 mps 646 mmHg 54%
    12:00 +21°C° 0 mm 2 mps 646 mmHg 60%
    13:00 +20°C° 0 mm 2 mps 645 mmHg 65%
    14:00 +19°C° 0 mm 3 mps 645 mmHg 71%
    15:00 +18°C° 0.1 mm 2 mps 645 mmHg 78%
    16:00 +17°C° 0.1 mm 2 mps 646 mmHg 85%
    17:00 +15°C° 0.1 mm 1 mps 646 mmHg 93%
    18:00 +14°C° 1.1 mm 1 mps 647 mmHg 94%
    19:00 +13°C° 1.1 mm 2 mps 648 mmHg 95%
    20:00 +12°C° 1.1 mm 2 mps 648 mmHg 97%
    21:00 +10°C° 0.5 mm 2 mps 648 mmHg 96%
    22:00 +10°C° 0.5 mm 2 mps 648 mmHg 96%
    23:00 +9°C° 0.5 mm 2 mps 648 mmHg 95%

    Tomorrow, 11 December, Wednesday

    Time Temperature Precipitation Wind Pressure Humidity
    00:00 +9°C° 0 mm 1 mps 648 mmHg 94%
    01:00 +9°C° 0 mm 1 mps 648 mmHg 94%
    02:00 +9°C° 0 mm 1 mps 648 mmHg 93%
    03:00 +9°C° 0.1 mm 1 mps 648 mmHg 93%
    04:00 +8°C° 0.1 mm 1 mps 648 mmHg 93%
    05:00 +8°C° 0.1 mm 1 mps 648 mmHg 92%
    06:00 +8°C° 0.1 mm 1 mps 649 mmHg 92%
    07:00 +9°C° 0.1 mm 1 mps 650 mmHg 92%
    08:00 +9°C° 0.1 mm 1 mps 650 mmHg 92%
    09:00 +9°C° 0 mm 1 mps 650 mmHg 88%
    10:00 +10°C° 0 mm 1 mps 651 mmHg 85%
    11:00 +11°C° 0 mm 1 mps 651 mmHg 81%
    12:00 +11°C° 0 mm 1 mps 650 mmHg 80%
    13:00 +12°C° 0 mm 1 mps 650 mmHg 78%
    14:00 +12°C° 0 mm 1 mps 649 mmHg 77%
    15:00 +11°C° 0 mm 1 mps 649 mmHg 81%
    16:00 +10°C° 0 mm 1 mps 649 mmHg 85%
    17:00 +9°C° 0 mm 1 mps 648 mmHg 90%
    18:00 +9°C° 0 mm 1 mps 649 mmHg 90%
    19:00 +8°C° 0 mm 0 mps 649 mmHg 91%
    20:00 +8°C° 0 mm 0 mps 649 mmHg 92%
    21:00 +7°C° 0 mm 0 mps 649 mmHg 93%
    22:00 +7°C° 0 mm 0 mps 649 mmHg 93%
    23:00 +7°C° 0 mm 0 mps 648 mmHg 94%

    Day after tomorrow, 12 December, Thursday

    Time Temperature Precipitation Wind Pressure Humidity
    00:00 +7°C° 0 mm 0 mps 648 mmHg 94%
    01:00 +6°C° 0 mm 0 mps 647 mmHg 95%
    02:00 +6°C° 0 mm 0 mps 647 mmHg 95%
    03:00 +6°C° 0 mm 0 mps 647 mmHg 95%
    04:00 +6°C° 0 mm 0 mps 646 mmHg 95%
    05:00 +6°C° 0 mm 0 mps 646 mmHg 94%
    06:00 +7°C° 0 mm 0 mps 647 mmHg 89%
    07:00 +9°C° 0 mm 0 mps 648 mmHg 83%
    08:00 +11°C° 0 mm 0 mps 648 mmHg 78%
    09:00 +12°C° 0 mm 0 mps 648 mmHg 73%
    10:00 +15°C° 0 mm 1 mps 648 mmHg 69%
    11:00 +16°C° 0 mm 1 mps 649 mmHg 64%
    12:00 +16°C° 0 mm 1 mps 648 mmHg 66%
    13:00 +16°C° 0 mm 1 mps 647 mmHg 68%
    14:00 +16°C° 0 mm 1 mps 646 mmHg 69%
    15:00 +15°C° 0 mm 1 mps 646 mmHg 77%
    16:00 +13°C° 0 mm 1 mps 645 mmHg 85%
    17:00 +10°C° 0 mm 0 mps 645 mmHg 93%
    18:00 +10°C° 0 mm 0 mps 645 mmHg 93%
    19:00 +10°C° 0 mm 0 mps 645 mmHg 93%
    20:00 +10°C° 0 mm 0 mps 646 mmHg 93%
    21:00 +9°C° 0 mm 0 mps 646 mmHg 94%
    22:00 +9°C° 0 mm 0 mps 646 mmHg 94%
    23:00 +9°C° 0 mm 0 mps 646 mmHg 95%

    13 December, Friday

    Time Temperature Precipitation Wind Pressure Humidity
    00:00 +9°C° 0 mm 0 mps 645 mmHg 95%
    01:00 +9°C° 0 mm 0 mps 645 mmHg 94%
    02:00 +8°C° 0 mm 0 mps 644 mmHg 94%
    03:00 +8°C° 0 mm 0 mps 644 mmHg 94%
    04:00 +8°C° 0 mm 0 mps 644 mmHg 93%
    05:00 +8°C° 0 mm 0 mps 644 mmHg 93%
    06:00 +10°C° 0 mm 0 mps 645 mmHg 86%
    07:00 +12°C° 0 mm 0 mps 646 mmHg 80%
    08:00 +14°C° 0 mm 0 mps 647 mmHg 73%
    09:00 +16°C° 0 mm 0 mps 647 mmHg 68%
    10:00 +19°C° 0 mm 1 mps 647 mmHg 64%
    11:00 +21°C° 0 mm 1 mps 647 mmHg 59%
    12:00 +20°C° 0 mm 2 mps 646 mmHg 60%
    13:00 +20°C° 0 mm 2 mps 645 mmHg 62%
    14:00 +20°C° 0 mm 2 mps 645 mmHg 64%
    15:00 +19°C° 0 mm 1 mps 644 mmHg 74%
    16:00 +16°C° 0 mm 1 mps 644 mmHg 83%
    17:00 +13°C° 0 mm 0 mps 643 mmHg 93%
    18:00 +13°C° 0 mm 0 mps 644 mmHg 92%
    19:00 +13°C° 0 mm 1 mps 644 mmHg 92%
    20:00 +13°C° 0 mm 1 mps 645 mmHg 91%
    21:00 +13°C° 0 mm 1 mps 644 mmHg 90%
    22:00 +12°C° 0 mm 1 mps 644 mmHg 89%
    23:00 +12°C° 0 mm 1 mps 644 mmHg 88%

    14 December, Saturday

    Time Temperature Precipitation Wind Pressure Humidity
    00:00 +12°C° 0 mm 1 mps 644 mmHg 86%
    01:00 +12°C° 0 mm 1 mps 643 mmHg 84%
    02:00 +11°C° 0 mm 1 mps 643 mmHg 82%
    03:00 +11°C° 0 mm 1 mps 643 mmHg 82%
    04:00 +11°C° 0 mm 1 mps 643 mmHg 83%
    05:00 +11°C° 0 mm 1 mps 643 mmHg 83%
    06:00 +13°C° 0 mm 1 mps 644 mmHg 76%
    07:00 +15°C° 0 mm 1 mps 645 mmHg 70%
    08:00 +18°C° 0 mm 1 mps 646 mmHg 63%
    09:00 +20°C° 0 mm 1 mps 646 mmHg 59%
    10:00 +21°C° 0 mm 1 mps 646 mmHg 54%
    11:00 +23°C° 0 mm 1 mps 646 mmHg 50%
    12:00 +23°C° 0 mm 2 mps 645 mmHg 52%
    13:00 +23°C° 0 mm 2 mps 644 mmHg 55%
    14:00 +21°C° 0 mm 2 mps 643 mmHg 57%
    15:00 +20°C° 0 mm 1 mps 643 mmHg 68%
    16:00 +18°C° 0 mm 1 mps 642 mmHg 79%
    17:00 +14°C° 0 mm 0 mps 642 mmHg 89%
    18:00 +15°C° 0 mm 1 mps 642 mmHg 87%
    19:00 +14°C° 0 mm 1 mps 642 mmHg 85%
    20:00 +14°C° 0 mm 2 mps 643 mmHg 82%
    21:00 +14°C° 0 mm 1 mps 643 mmHg 80%
    22:00 +14°C° 0 mm 1 mps 642 mmHg 78%
    23:00 +14°C° 0 mm 1 mps 642 mmHg 76%

    15 December, Sunday

    Time Temperature Precipitation Wind Pressure Humidity
    00:00 +13°C° 0 mm 1 mps 642 mmHg 74%
    01:00 +13°C° 0 mm 1 mps 642 mmHg 72%
    02:00 +13°C° 0 mm 1 mps 641 mmHg 70%
    03:00 +13°C° 0 mm 1 mps 641 mmHg 68%
    04:00 +13°C° 0 mm 1 mps 641 mmHg 67%
    05:00 +12°C° 0 mm 1 mps 642 mmHg 65%
    06:00 +14°C° 0 mm 1 mps 643 mmHg 62%
    07:00 +16°C° 0 mm 1 mps 644 mmHg 58%
    08:00 +19°C° 0 mm 1 mps 645 mmHg 54%
    09:00 +20°C° 0 mm 1 mps 645 mmHg 51%
    10:00 +22°C° 0 mm 1 mps 645 mmHg 47%
    11:00 +24°C° 0 mm 1 mps 645 mmHg 44%
    12:00 +24°C° 0 mm 1 mps 644 mmHg 47%
    13:00 +24°C° 0 mm 1 mps 644 mmHg 50%
    14:00 +24°C° 0 mm 1 mps 643 mmHg 53%
    15:00 +22°C° 0 mm 1 mps 642 mmHg 63%
    16:00 +19°C° 0 mm 1 mps 642 mmHg 74%
    17:00 +15°C° 0 mm 0 mps 641 mmHg 84%
    18:00 +16°C° 0 mm 1 mps 642 mmHg 77%
    19:00 +16°C° 0 mm 1 mps 642 mmHg 70%
    20:00 +16°C° 0 mm 2 mps 643 mmHg 63%
    21:00 +16°C° 0 mm 2 mps 643 mmHg 62%
    22:00 +16°C° 0 mm 1 mps 643 mmHg 60%
    23:00 +15°C° 0 mm 1 mps 643 mmHg 59%
    Show more